Погода в Зеленогорском

Россия / Тверская область     57°30′20″N   34°33′50″E
темп.,
°C
ветер,
м/с
пор.,
м/с
влажн.,
%
обл.,
%
осадки,
мм/ч
давл.,
гПа
погр.,
м
26 октября, вт
вт2600:00+1юз4128887 0.0 1022497
03:00+1юз41286100 0.0 1020442
06:00+1юз41285100 0.0 1019418
09:00+2юз41380100 0.0 1018480
12:00+5юз41271100 0.0 1017574
15:00+5юз41172100 0.0 1016608
18:00+4юз41178100 0.0 1015458
21:00+3юз41179100 0.0 1014460
27 октября, ср
ср2700:00+3юз41282100 0.0 1014444
03:00+2юз41283100 0.0 1011446
06:00+3юз41284100 0.0 1009457
09:00+4юз51388100 0.7 1008661
12:00+5зюз51392100 0.6 1008784
15:00+7з51283100 0.6 1009932
18:00+6з51180100 0.0 1010966
21:00+6зюз51281100 0.1 1010722
28 октября, чт
чт2800:00+5зюз41089100 0.0 1009457
03:00+5ююз3892100 0.1 1007352
06:00+6ююз31095100 3.8 1005569
09:00+8з31297100 5.8 1004748
12:00+9сз41095100 1.5 1007855
15:00+6ссв4890100 2.3 1013895
18:00+5с4889100 0.2 1018691
21:00+3ссв3582100 0.3 1023802
29 октября, пт
пт2900:00+2всв248290 0.0 1025397
03:000вюв2387100 0.0 1027186
06:000юв2689100 0.0 1028213
09:00+1ююв388887 0.0 1029285
12:00+5ю41081100 0.0 1028557
15:00+7ююз5127740 0.0 1026651
18:00+6юз41283100 0.0 1026446
21:00+6юз4138998 0.0 1026402
30 октября, сб
сб3000:00+6юз4139151 0.0 1026380
03:00+6юз4139049 0.0 1026383
06:00+6юз4148570 0.0 1025391
09:00+6юз4148154 0.0 1025439
12:00+9юз51471100 0.0 1024515
15:00+9ююз5137089 0.0 1023622
18:00+7ююз5147977 0.0 1022523
21:00+7ююз5158493 0.0 1021602